Aérodrome :
LOGIN :

S'inscrire | Disclaimer

   EN    FR    IT 

 










Légende :    VFR   VFR Marginal   IFR   IFR Intensif   IFR Très Intensif
Visi : 
Plafond : 
>= 8 km
>= 3000ft
5 à 8 km
1000 à 3000 ft
1500m à 5 km
500 à 1000 ft
800 à 1500m
200 à 500 ft
< 800m
< 200 ft
Symboles :   Orages  Brouillard  Fortes neiges  Fortes précipitations  Vent > 20 kt
SIGMETs :   Divers  Orages  Givrage  Turbulence  Onde Orograph.  Cendres Volcan.






- Altitude de l'aérodrome : 1585 ft
- Code IATA : SIR


LSGS - Sion

DERNIER METAR :
  • 291720Z 24011KT 9999 FEW100 23/06 Q1014

METARs EXPIRÉS :
  • 291650Z 24012KT 9999 FEW100 24/07 Q1014
  • 291620Z 24013KT 9999 SCT100 25/06 Q1014
  • 291550Z 24013KT 9999 SCT100 25/06 Q1014
  • 291520Z 25013KT 210V280 9999 SCT100 26/07 Q1014
  • 291450Z 25015KT 9999 FEW100 25/06 Q1014

TAF TAF LSGS
Valide du 29 à 15h jusqu'au 30 à 00h UTC


291425Z 2915/2924 25012KT 9999 FEW100
BECMG 2917/2920 VRB03KT CAVOK



MET'MAP, la Météo Aéronautique d'un coup d'oeil ! - Copyright ORBIFLY Décembre 2007 - Disclaimer

ORBIFLY MET'MAP TEAM :

Programmation & Développement : Alexandra Zaïnal
Sur une idée originale de : Baudouin d'Aumeries
Assistance à la programmation : Marc-Olivier Méhu
Soutien technique & logistique : Manuel Goepfert

Contact : metmap@orbifly.com




SOURCES & CREDITS :

   NOAA